When you browse on this site, cookies collect data to enhance your experience and personalize the content and advertising you see.
Visit our Privacy Policy to learn more. By continuing to use the site, you agree to this use of cookies and data.
  • En España
  • Lista de países
  • Para 7 días
  • Temperatura del agua
  • Mapa Satelital
  • El tiempo en el mapa
  • Informadores
  • user-avatar
    Iniciar sesión

    Tiempo cada hora Birao

    Hoy, 19 Junio, Miércoles

    Tiempo Temperatura Precipitaciones Viento Presión Humedad
    00:00 +28°C° 1 mm 2 mps 720 mmHg 75%
    01:00 +27°C° 1 mm 2 mps 719 mmHg 79%
    02:00 +26°C° 0 mm 4 mps 720 mmHg 86%
    03:00 +25°C° 0.4 mm 3 mps 719 mmHg 87%
    04:00 +25°C° 0.4 mm 2 mps 719 mmHg 88%
    05:00 +25°C° 0.4 mm 1 mps 718 mmHg 89%
    06:00 +26°C° 0 mm 1 mps 719 mmHg 85%
    07:00 +26°C° 0 mm 1 mps 719 mmHg 80%
    08:00 +27°C° 0 mm 1 mps 719 mmHg 76%
    09:00 +29°C° 0 mm 1 mps 720 mmHg 69%
    10:00 +31°C° 0 mm 1 mps 720 mmHg 61%
    11:00 +34°C° 0 mm 2 mps 720 mmHg 54%
    12:00 +35°C° 0 mm 2 mps 720 mmHg 49%
    13:00 +36°C° 0 mm 1 mps 719 mmHg 45%
    14:00 +37°C° 0 mm 1 mps 719 mmHg 40%
    15:00 +37°C° 0 mm 1 mps 718 mmHg 41%
    16:00 +36°C° 0 mm 1 mps 717 mmHg 41%
    17:00 +36°C° 0 mm 2 mps 717 mmHg 42%
    18:00 +35°C° 0 mm 2 mps 717 mmHg 48%
    19:00 +32°C° 0 mm 1 mps 718 mmHg 55%
    20:00 +31°C° 0 mm 1 mps 718 mmHg 61%
    21:00 +30°C° 1.9 mm 2 mps 718 mmHg 67%
    22:00 +28°C° 1.9 mm 3 mps 719 mmHg 74%
    23:00 +27°C° 1.9 mm 4 mps 719 mmHg 80%

    Mañana, 20 Junio, Jueves

    Tiempo Temperatura Precipitaciones Viento Presión Humedad
    00:00 +27°C° 0.7 mm 3 mps 719 mmHg 80%
    01:00 +27°C° 0.7 mm 2 mps 719 mmHg 80%
    02:00 +27°C° 0.7 mm 1 mps 718 mmHg 80%
    03:00 +26°C° 0 mm 1 mps 718 mmHg 81%
    04:00 +26°C° 0 mm 1 mps 718 mmHg 82%
    05:00 +26°C° 0 mm 1 mps 718 mmHg 82%
    06:00 +27°C° 0 mm 1 mps 718 mmHg 80%
    07:00 +27°C° 0 mm 1 mps 719 mmHg 78%
    08:00 +28°C° 0 mm 1 mps 719 mmHg 76%
    09:00 +30°C° 0 mm 2 mps 719 mmHg 69%
    10:00 +32°C° 0 mm 2 mps 719 mmHg 61%
    11:00 +34°C° 0 mm 2 mps 720 mmHg 53%
    12:00 +35°C° 0 mm 2 mps 719 mmHg 50%
    13:00 +36°C° 0 mm 2 mps 718 mmHg 46%
    14:00 +37°C° 0 mm 2 mps 718 mmHg 42%
    15:00 +37°C° 0 mm 2 mps 717 mmHg 42%
    16:00 +37°C° 0 mm 2 mps 717 mmHg 42%
    17:00 +36°C° 0 mm 1 mps 716 mmHg 41%
    18:00 +35°C° 0.2 mm 2 mps 717 mmHg 47%
    19:00 +32°C° 0.2 mm 2 mps 717 mmHg 53%
    20:00 +31°C° 0.2 mm 2 mps 717 mmHg 59%
    21:00 +30°C° 0.6 mm 2 mps 718 mmHg 63%
    22:00 +29°C° 0.6 mm 2 mps 718 mmHg 67%
    23:00 +28°C° 0.6 mm 2 mps 718 mmHg 71%

    Pasado mañana, 21 Junio, Viernes

    Tiempo Temperatura Precipitaciones Viento Presión Humedad
    00:00 +27°C° 0.3 mm 2 mps 718 mmHg 73%
    01:00 +27°C° 0.3 mm 2 mps 718 mmHg 74%
    02:00 +27°C° 0.3 mm 3 mps 718 mmHg 76%
    03:00 +27°C° 0 mm 2 mps 718 mmHg 78%
    04:00 +26°C° 0 mm 1 mps 717 mmHg 80%
    05:00 +26°C° 0 mm 1 mps 717 mmHg 82%
    06:00 +27°C° 0 mm 1 mps 718 mmHg 80%
    07:00 +27°C° 0 mm 1 mps 718 mmHg 79%
    08:00 +28°C° 0 mm 2 mps 719 mmHg 77%
    09:00 +30°C° 0 mm 2 mps 719 mmHg 69%
    10:00 +32°C° 0 mm 2 mps 719 mmHg 62%
    11:00 +35°C° 0 mm 3 mps 719 mmHg 54%
    12:00 +36°C° 0 mm 2 mps 719 mmHg 50%
    13:00 +37°C° 0 mm 2 mps 718 mmHg 45%
    14:00 +38°C° 0 mm 2 mps 718 mmHg 41%
    15:00 +38°C° 0 mm 2 mps 717 mmHg 41%
    16:00 +38°C° 0 mm 2 mps 716 mmHg 40%
    17:00 +38°C° 0 mm 2 mps 716 mmHg 40%
    18:00 +36°C° 0 mm 2 mps 716 mmHg 45%
    19:00 +34°C° 0 mm 2 mps 716 mmHg 50%
    20:00 +32°C° 0 mm 2 mps 716 mmHg 56%
    21:00 +31°C° 0 mm 2 mps 717 mmHg 58%
    22:00 +31°C° 0 mm 3 mps 717 mmHg 60%
    23:00 +30°C° 0 mm 3 mps 717 mmHg 62%

    22 Junio, Sábado

    Tiempo Temperatura Precipitaciones Viento Presión Humedad
    00:00 +29°C° 0.5 mm 3 mps 717 mmHg 68%
    01:00 +28°C° 0.5 mm 3 mps 717 mmHg 74%
    02:00 +27°C° 0.5 mm 3 mps 716 mmHg 80%
    03:00 +27°C° 0 mm 3 mps 716 mmHg 80%
    04:00 +27°C° 0 mm 3 mps 716 mmHg 80%
    05:00 +27°C° 0 mm 3 mps 716 mmHg 80%
    06:00 +27°C° 0 mm 3 mps 717 mmHg 79%
    07:00 +28°C° 0 mm 4 mps 718 mmHg 77%
    08:00 +28°C° 0 mm 4 mps 718 mmHg 75%
    09:00 +30°C° 0 mm 4 mps 718 mmHg 69%
    10:00 +32°C° 0 mm 4 mps 718 mmHg 64%
    11:00 +33°C° 0 mm 4 mps 719 mmHg 59%
    12:00 +33°C° 0 mm 3 mps 718 mmHg 57%
    13:00 +34°C° 0 mm 3 mps 718 mmHg 53%
    14:00 +35°C° 0 mm 3 mps 717 mmHg 49%
    15:00 +35°C° 0 mm 3 mps 717 mmHg 48%
    16:00 +35°C° 0 mm 2 mps 716 mmHg 47%
    17:00 +35°C° 0 mm 2 mps 716 mmHg 46%
    18:00 +34°C° 0 mm 2 mps 716 mmHg 52%
    19:00 +31°C° 0 mm 2 mps 716 mmHg 57%
    20:00 +30°C° 0 mm 2 mps 716 mmHg 63%
    21:00 +29°C° 0 mm 2 mps 716 mmHg 66%
    22:00 +29°C° 0 mm 3 mps 717 mmHg 69%
    23:00 +28°C° 0 mm 3 mps 717 mmHg 71%

    23 Junio, Domingo

    Tiempo Temperatura Precipitaciones Viento Presión Humedad
    00:00 +28°C° 0 mm 3 mps 717 mmHg 73%
    01:00 +27°C° 0 mm 3 mps 716 mmHg 75%
    02:00 +27°C° 0 mm 3 mps 716 mmHg 77%
    03:00 +26°C° 0.2 mm 2 mps 716 mmHg 79%
    04:00 +26°C° 0.2 mm 2 mps 717 mmHg 82%
    05:00 +25°C° 0.2 mm 2 mps 717 mmHg 84%
    06:00 +26°C° 0 mm 2 mps 717 mmHg 82%
    07:00 +27°C° 0 mm 3 mps 718 mmHg 79%
    08:00 +27°C° 0 mm 3 mps 718 mmHg 77%
    09:00 +29°C° 0 mm 3 mps 718 mmHg 70%
    10:00 +30°C° 0 mm 3 mps 718 mmHg 63%
    11:00 +33°C° 0 mm 3 mps 719 mmHg 57%
    12:00 +34°C° 0 mm 3 mps 718 mmHg 53%
    13:00 +35°C° 0 mm 3 mps 718 mmHg 49%
    14:00 +36°C° 0 mm 3 mps 717 mmHg 46%
    15:00 +36°C° 0 mm 2 mps 717 mmHg 46%
    16:00 +36°C° 0 mm 2 mps 716 mmHg 46%
    17:00 +35°C° 0 mm 1 mps 716 mmHg 46%
    18:00 +33°C° 0.2 mm 1 mps 716 mmHg 51%
    19:00 +32°C° 0.2 mm 1 mps 716 mmHg 55%
    20:00 +31°C° 0.2 mm 1 mps 717 mmHg 60%
    21:00 +29°C° 2.8 mm 3 mps 717 mmHg 68%
    22:00 +27°C° 2.8 mm 4 mps 717 mmHg 77%
    23:00 +26°C° 2.8 mm 5 mps 717 mmHg 86%

    24 Junio, Lunes

    Tiempo Temperatura Precipitaciones Viento Presión Humedad
    00:00 +25°C° 2.7 mm 4 mps 717 mmHg 84%
    01:00 +25°C° 2.7 mm 3 mps 716 mmHg 81%
    02:00 +25°C° 2.7 mm 2 mps 716 mmHg 79%
    03:00 +25°C° 0 mm 1 mps 716 mmHg 81%
    04:00 +25°C° 0 mm 1 mps 716 mmHg 83%
    05:00 +25°C° 0 mm 1 mps 716 mmHg 85%
    06:00 +26°C° 0 mm 1 mps 717 mmHg 83%
    07:00 +26°C° 0 mm 1 mps 717 mmHg 81%
    08:00 +27°C° 0 mm 1 mps 718 mmHg 79%
    09:00 +28°C° 0 mm 2 mps 718 mmHg 72%
    10:00 +30°C° 0 mm 2 mps 719 mmHg 65%
    11:00 +32°C° 0 mm 2 mps 719 mmHg 58%
    12:00 +32°C° 0 mm 2 mps 718 mmHg 55%
    13:00 +34°C° 0 mm 2 mps 718 mmHg 52%
    14:00 +35°C° 0 mm 2 mps 717 mmHg 49%
    15:00 +35°C° 0 mm 2 mps 717 mmHg 50%
    16:00 +34°C° 0 mm 2 mps 716 mmHg 51%
    17:00 +33°C° 0 mm 1 mps 716 mmHg 51%
    18:00 +32°C° 0 mm 2 mps 716 mmHg 57%
    19:00 +30°C° 0 mm 2 mps 716 mmHg 62%
    20:00 +29°C° 0 mm 2 mps 717 mmHg 67%
    21:00 +29°C° 0 mm 2 mps 717 mmHg 68%
    22:00 +28°C° 0 mm 2 mps 717 mmHg 70%
    23:00 +28°C° 0 mm 2 mps 718 mmHg 71%
    Mostrar más